Location: Berdetschlag
(48.6833°N, 13.8833°E)
Time: 04:51:43
(UTC+00:00)

Daily predictions for brighter satellites

Satellite Brightness Start Highest point End
(mag) Time Altitude Azimuth Time Altitude Azimuth Time Altitude Azimuth
Cosmos 2278 Rocket 3.6 03:14:43 31° NNE 03:15:34 32° NE 03:20:38 10° ESE
Cosmos 2322 4.3 03:27:03 56° ENE 03:27:03 56° ENE 03:31:58 10° NE
Cosmos 2333 Rocket 2.7 03:32:03 57° ESE 03:32:03 57° ESE 03:37:30 10° NE
Cosmos 2219 Rocket 2.7 03:33:23 52° SE 03:33:45 53° ESE 03:39:11 10° NE
Lacrosse 5 rocket 3.7 03:36:14 21° ENE 03:36:14 21° ENE 03:37:46 10° E
Cosmos 1937 Rocket 4.5 03:40:30 37° NNE 03:41:51 44° ENE 03:46:52 10° SE
USA 215 3.7 03:41:26 10° ENE 03:47:35 46° N 03:48:02 45° NNW
GEOS 3 Rocket 3.8 03:44:41 10° SE 03:50:01 70° NE 03:50:25 67° NNE
COSMOS 2428 3.1 03:50:00 41° S 03:51:52 62° ESE 03:57:30 10° NNE
Cosmos 2333 4.2 03:54:44 69° N 03:54:44 69° N 03:59:45 10° NNE
Meteor 1-22 Rocket 4.2 03:58:11 77° NW 03:58:11 77° NW 04:04:00 10° N
IRIDIUM 104 4.4 03:52:55 10° S 03:58:07 73° E 04:03:20 10° N
SL-16 R/B 3.9 04:00:40 19° N 04:00:40 19° N 04:02:55 10° NNE
Cosmos 2360 Rocket 3.1 04:05:03 33° N 04:05:03 33° N 04:08:40 10° NNE
Cosmos 2322 Rocket 3.8 04:06:14 21° N 04:06:14 21° N 04:08:46 10° NNE
Cosmos 1455 Rocket 3.7 04:02:50 10° S 04:07:04 54° E 04:11:19 10° NNE
IRIDIUM 114 4.2 04:02:01 10° S 04:07:14 87° E 04:12:30 10° N
Cosmos 44 Rocket 3.6 04:08:17 57° N 04:09:14 72° NE 04:14:27 10° SE
SKYMED 2 3.8 04:07:12 10° SSE 04:10:54 64° SSE 04:10:54 64° SSE
ALOS 4.1 04:07:41 10° N 04:09:03 19° N 04:09:03 19° N
FENGYUN 3A 4.0 04:07:13 10° N 04:11:19 47° NNW 04:11:19 47° NNW
ADEOS 3.4 04:09:48 10° NNE 04:15:03 82° WNW 04:17:44 30° SSW
IRIDIUM 103 4.1 04:11:11 10° S 04:16:24 80° W 04:21:39 10° N
ATLAS 5 CENTAUR R/B 3.2 04:19:14 25° SSE 04:19:14 25° SSE 04:21:11 10° SE
Cosmos 990 Rocket 3.9 04:19:24 63° WSW 04:19:24 63° WSW 04:24:15 10° S
MOS 1 Rocket 3.5 04:15:02 10° SSE 04:20:02 74° ENE 04:23:48 16° N
deb Chang Zheng 4 3.8 04:16:43 10° NNE 04:20:59 65° ESE 04:25:10 10° S
Meteor PRIRODA 4.4 04:19:33 10° NNE 04:23:06 52° E 04:26:38 10° S
Cosmos 1953 3.3 04:19:19 10° SSE 04:23:07 46° E 04:26:57 10° NNE
Meteor 2-10 4.1 04:17:48 10° S 04:23:27 87° W 04:28:57 10° NNE
ERS-2 2.8 04:20:50 10° SSE 04:23:29 47° SSE 04:23:29 47° SSE
Cosmos 1726 4.1 04:35:56 18° N 04:35:56 18° N 04:36:58 10° N
IRIDIUM 106 4.3 04:29:38 10° SSW 04:34:45 56° W 04:39:54 10° N
SL-8 R/B 3.9 04:34:40 48° SW 04:35:23 53° SSW 04:40:05 10° SE
Cosmos 858 Rocket 4.4 04:33:37 33° NNW 04:36:03 75° WSW 04:41:15 10° SSE
SJ-12 3.8 04:34:02 10° N 04:38:09 64° WNW 04:39:02 49° SW
Cosmos 1461 3.3 04:35:33 24° SSW 04:38:23 78° SE 04:43:10 10° NE
PSLV R/B 3.8 04:34:52 10° SSE 04:38:59 88° W 04:41:21 25° NNW
Cosmos 1689 Rocket 3.0 04:37:52 10° SSE 04:39:51 40° SSE 04:39:51 40° SSE
Cosmos 1763 Rocket 3.4 04:40:44 16° SW 04:44:49 67° WNW 04:50:04 10° NNE
Cosmos 1898 Rocket 3.8 04:48:06 38° WNW 04:49:04 42° WSW 04:53:53 10° S
Cosmos 2084 3.7 04:49:48 43° WNW 04:50:16 45° NW 04:54:29 10° NE
Cosmos 841 Rocket 3.6 04:45:40 10° SSW 04:50:47 74° ESE 04:55:57 10° NNE
BREEZE-M DEB (TANK) 4.2 04:48:26 33° W 04:51:02 84° N 05:09:12 10° E
Cosmos 1758 4.2 04:54:43 31° NW 04:54:43 31° NW 04:57:21 10° N
Cosmos 2369 Rocket 4.1 04:49:44 10° N 04:54:11 23° NE 04:58:35 10° E
Cosmos 921 Rocket 3.0 04:53:25 32° WSW 04:55:02 50° WNW 04:59:10 10° N
NOSS 0 Rocket 3.9 04:49:45 10° SSW 04:55:58 89° WNW 05:02:11 10° NNE
Meteor 1-21 Rocket 4.2 04:51:05 10° NNW 04:56:45 69° W 05:02:30 10° S
Cosmos 1340 2.6 04:56:03 13° N 04:59:22 85° ENE 05:03:08 10° SSE
COSMO-SKYMED 1 3.3 04:55:55 10° SSW 04:59:33 32° WSW 04:59:33 32° WSW
Cosmos 2278 Rocket 2.3 04:56:36 23° NW 04:59:55 52° WSW 05:05:24 10° S
SL-16 R/B 4.1 04:55:08 10° SSE 05:00:03 32° ESE 05:05:01 10° NE
CZ-4B R/B 2.7 04:58:02 10° N 05:01:32 50° WNW 05:05:05 10° SSW
Cosmos 1703 3.1 04:58:11 10° N 05:02:05 85° W 05:05:59 10° S
Cosmos 1570 Rocket 4.1 04:58:28 10° SSW 05:03:41 78° ESE 05:08:57 10° NNE
Cosmos 1943 Rocket 3.4 05:02:12 10° NNW 05:07:31 40° NE 05:12:50 10° ESE
Cosmos 1346 Rocket 3.9 05:04:26 10° N 05:08:16 45° ENE 05:12:04 10° SSE
SAR-Lupe-4 4.1 05:07:20 10° SSW 05:10:39 35° W 05:11:24 32° WNW
Cosmos 1464 Rocket 4.1 05:05:59 10° SSW 05:11:52 48° WNW 05:17:49 10° N
Cosmos 2237 Rocket 2.1 05:06:45 10° SSW 05:12:26 84° WNW 05:18:11 10° NNE
CZ-2C R/B 2.8 05:07:39 10° SSE 05:12:50 74° ENE 05:18:11 10° N
Lacrosse 5 rocket 1.2 05:11:53 30° WNW 05:13:34 62° SW 05:17:14 10° SE
H-2A R/B 2.8 05:11:19 10° N 05:14:53 47° WNW 05:18:27 10° SW
Lacrosse 4 Rocket 2.9 05:12:18 10° S 05:16:15 40° ESE 05:20:20 10° NE
Cosmos 2333 Rocket 3.0 05:14:07 22° W 05:16:34 30° NW 05:21:34 10° NNE
Cosmos 2219 Rocket 2.9 05:15:10 21° W 05:17:59 31° NW 05:22:58 10° NNE
Cosmos 1544 Rocket 3.8 05:13:54 10° SSW 05:18:01 43° WNW 05:22:11 10° N
Cosmos 2208 Rocket 4.1 05:18:06 10° SSW 05:23:34 88° WNW 05:29:02 10° NNE
Cosmos 1125 Rocket 4.0 05:18:18 10° NNW 05:23:35 63° ENE 05:28:51 10° SE
Cosmos 1937 Rocket 4.3 05:20:43 18° NW 05:23:38 30° W 05:28:09 10° SSW
BREEZE-M DEB (TANK) 3.9 05:20:10 17° WNW 05:25:51 37° SW 05:29:08 10° SSE
Cosmos 372 Rocket 4.2 05:20:52 10° NNW 05:25:58 52° WSW 05:31:02 10° S
Cosmos 1814 Rocket 3.9 05:22:56 10° SSW 05:28:04 75° WNW 05:33:13 10° NNE
Envisat 3.0 05:23:18 10° N 05:28:21 64° WNW 05:33:22 10° SSW
Cosmos 2084 Rocket 3.8 05:25:15 14° NW 05:28:55 67° NE 05:33:23 10° SE
Cosmos 1328 3.8 05:25:34 10° NNW 05:29:27 58° W 05:33:17 10° S
USA 215 3.8 05:23:45 10° E 05:29:55 47° N 05:35:23 13° WNW
Cosmos 1400 Rocket 2.8 05:27:22 10° SSW 05:31:25 61° WNW 05:35:31 10° N
Cosmos 2297 3.8 05:25:52 10° NNW 05:31:40 82° ENE 05:37:25 10° SSE
NOAA 6 4.0 05:28:04 10° NNE 05:33:17 80° WNW 05:38:29 10° SSW
Cosmos 1626 Rocket 4.2 05:30:32 10° NNW 05:34:37 35° W 05:38:40 10° SSW
FALCON 9 DEB 3.2 05:31:29 10° WSW 05:34:49 77° SSE 05:38:14 10° ENE
COSMOS 2428 3.6 05:32:07 12° WSW 05:36:34 29° NW 05:41:30 10° NNE
PSLV R/B 4.0 05:33:09 10° N 05:36:59 51° WNW 05:40:52 10° SSW
SL-4 R/B 3.8 05:33:55 10° SSW 05:37:21 31° SE 05:41:04 10° E
Cosmos 1092 Rocket 4.0 05:31:40 10° NNW 05:37:40 58° W 05:43:42 10° S
YAOGAN 6 3.1 05:34:33 10° N 05:38:01 39° WNW 05:41:28 10° SW
SL-19 R/B 4.2 05:36:35 10° NNE 05:40:48 72° WNW 05:44:24 10° SSW
Cosmos 2228 3.4 05:36:41 10° S 05:40:54 68° E 05:45:08 10° NNE
MOS 1-B 4.3 05:38:53 10° NNE 05:44:42 80° WNW 05:50:27 10° SSW
Cosmos 1455 Rocket 4.4 05:42:18 10° WSW 05:45:16 18° WNW 05:48:14 10° NNW
Cosmos 1980 3.9 05:39:57 10° SW 05:45:25 48° NW 05:50:56 10° NNE
Cosmos 2292 Rocket 3.7 05:44:14 10° N 05:47:07 47° ENE 05:50:04 10° SSE
Cosmos 1300 2.6 05:43:54 10° S 05:47:43 89° WNW 05:51:33 10° N
Cosmos 2360 Rocket 4.0 05:46:50 11° NW 05:48:54 13° NNW 05:51:17 10° N
Cosmos 2279 Rocket 4.2 05:44:42 10° S 05:50:55 77° E 05:57:12 10° NNE
H-2A R/B 2.6 05:46:56 10° N 05:51:23 68° WNW 05:55:51 10° SSW
Cosmos 972 Rocket 4.4 05:47:52 10° SSW 05:54:23 79° WNW 06:00:12 10° NNE
ATLAS CENTAUR R/B 1.4 05:52:35 10° SSW 05:56:15 71° SE 05:59:55 10° NE
Cosmos 1758 Rocket 3.8 05:52:29 10° NNW 05:56:51 49° W 06:01:09 10° SSW
NOSS 3-2 (A) 3.7 05:51:37 10° SSW 05:57:16 73° SE 06:03:49 10° NE
CZ-4B DEB 4.3 05:52:04 10° N 05:57:30 55° WNW 06:02:53 10° SW
Cosmos 1408 4.2 05:54:26 10° N 05:57:46 35° ENE 06:01:05 10° SE
Cosmos 540 Rocket 4.1 05:55:00 10° WSW 05:59:33 32° NW 06:04:10 10° N
Cosmos 1953 3.7 05:57:04 10° WSW 05:59:46 17° WNW 06:02:29 10° NNW
CZ-2D R/B 4.4 05:56:43 10° NNE 06:00:25 47° E 06:04:06 10° S
BREEZE-M DEB (TANK) 3.8 05:57:36 10° WSW 06:01:15 73° SSE 06:14:55 10° ENE
Okean O Rocket 1.5 05:57:00 10° N 06:01:23 76° WNW 06:05:43 10° SSW
Cosmos 2058 Rocket 4.0 05:59:31 10° S 06:03:47 53° E 06:08:06 10° NNE
Cosmos 1634 Rocket 4.1 05:59:25 10° SSW 06:05:27 56° WNW 06:11:33 10° N
Cosmos 1908 4.5 06:02:44 10° WSW 06:05:36 20° WNW 06:08:31 10° NNW
NOSS 3-2 (C) 4.3 06:01:21 10° SSW 06:06:49 54° ESE 06:13:06 10° NE
SMAP 3.3 06:07:06 10° N 06:11:35 47° WNW 06:16:02 10° SW
USA 307 3.9 06:08:47 10° SW 06:12:52 49° SE 06:16:57 10° ENE
AQUARIUS 4.4 06:08:56 10° N 06:13:17 49° WNW 06:17:37 10° SW
